TimeEDT,TemperatureF,Dew PointF,Humidity,Sea Level PressureIn,VisibilityMPH,Wind Direction,Wind SpeedMPH,Gust SpeedMPH,PrecipitationIn,Events,Conditions,WindDirDegrees,DateUTC
12:53 AM,79.0,72.0,79,29.91,10.0,Calm,Calm,-,N/A,,Scattered Clouds,0,2013-06-29 04:53:00
1:53 AM,80.1,73.9,81,29.90,10.0,Calm,Calm,-,N/A,,Partly Cloudy,0,2013-06-29 05:53:00
2:53 AM,80.1,75.0,85,29.88,10.0,Calm,Calm,-,0.00,,Scattered Clouds,0,2013-06-29 06:53:00
3:53 AM,81.0,75.0,82,29.88,10.0,SSW,3.5,-,N/A,,Partly Cloudy,200,2013-06-29 07:53:00
4:53 AM,80.1,75.0,85,29.88,10.0,SSW,9.2,-,0.04,,Mostly Cloudy,200,2013-06-29 08:53:00
5:53 AM,79.0,73.0,82,29.89,10.0,West,3.5,-,N/A,,Partly Cloudy,280,2013-06-29 09:53:00
6:53 AM,78.1,75.0,90,29.90,10.0,NW,3.5,-,N/A,,Scattered Clouds,310,2013-06-29 10:53:00
7:53 AM,79.0,75.0,88,29.90,10.0,Calm,Calm,-,N/A,,Scattered Clouds,0,2013-06-29 11:53:00
8:53 AM,81.0,73.9,79,29.90,10.0,Calm,Calm,-,N/A,,Scattered Clouds,0,2013-06-29 12:53:00
9:53 AM,82.9,73.9,74,29.90,10.0,SSE,4.6,-,N/A,,Scattered Clouds,160,2013-06-29 13:53:00
10:53 AM,86.0,73.9,67,29.89,10.0,ESE,9.2,-,N/A,,Mostly Cloudy,120,2013-06-29 14:53:00
11:53 AM,87.1,75.0,67,29.89,10.0,SE,12.7,-,N/A,,Mostly Cloudy,140,2013-06-29 15:53:00
12:53 PM,88.0,75.0,65,29.88,10.0,SE,9.2,18.4,N/A,,Mostly Cloudy,130,2013-06-29 16:53:00
1:53 PM,84.9,77.0,77,29.87,10.0,SE,15.0,-,0.02,,Scattered Clouds,130,2013-06-29 17:53:00
2:48 PM,82.4,75.2,79,29.86,6.0,SSE,10.4,-,0.12,Rain-Thunderstorm,Heavy Thunderstorms and Rain,160,2013-06-29 18:48:00
2:53 PM,82.9,75.0,77,29.86,7.0,ESE,10.4,-,0.12,Rain-Thunderstorm,Light Thunderstorms and Rain,120,2013-06-29 18:53:00
3:26 PM,80.6,75.2,84,29.86,7.0,SSW,6.9,-,0.03,Rain,Light Rain,200,2013-06-29 19:26:00
3:53 PM,82.0,75.9,82,29.85,10.0,SSW,10.4,17.3,0.03,,Partly Cloudy,200,2013-06-29 19:53:00
4:53 PM,86.0,73.9,67,29.85,10.0,WSW,9.2,-,N/A,,Scattered Clouds,250,2013-06-29 20:53:00
5:53 PM,84.0,73.0,69,29.87,10.0,SW,9.2,-,N/A,,Mostly Cloudy,220,2013-06-29 21:53:00
6:53 PM,79.0,73.9,84,29.87,5.0,WSW,5.8,-,0.03,Rain,Light Rain,240,2013-06-29 22:53:00
7:53 PM,80.1,73.9,81,29.88,10.0,WSW,5.8,-,0.00,,Mostly Cloudy,240,2013-06-29 23:53:00
8:53 PM,81.0,75.0,82,29.90,10.0,SSW,4.6,-,N/A,,Mostly Cloudy,210,2013-06-30 00:53:00
9:53 PM,81.0,75.0,82,29.91,10.0,SSW,5.8,-,N/A,,Partly Cloudy,210,2013-06-30 01:53:00
10:53 PM,80.1,75.0,85,29.91,10.0,South,5.8,-,N/A,,Partly Cloudy,180,2013-06-30 02:53:00
11:53 PM,79.0,73.0,82,29.91,10.0,SSW,3.5,-,N/A,,Partly Cloudy,200,2013-06-30 03:53:00